Location: Étouvelles
(49.5207°N, 3.5808°E)
Time: 23:29:36
(UTC+00:00)

SJ-6B - Pass Details

Date: 03 February 2023
Orbit: 501 x 570 km, 97.5° (Epoch: 01 April)

Event Time Altitude Azimuth Distance (km) Brightness Sun altitude
Exits shadow 19:22:54 31° 341° (NNW) 981 4.2 -25.9°
Drops below altitude 10° 19:25:06 10° 345° (NNW) 1,852 5.7 -26.2°
Sets 19:27:16 0° 346° (NNW) 2,764 6.6 -26.6°
